Detroit, MI

5:44 PM EST on November 23, 2017 (GMT -0500)
Detroit City

Weather History for KDET - November, 2013

Change the Weather History Date:

Friday, November 15, 2013

  Actual Average Record
Temperature  
Mean Temperature 46 °F -  
Max Temperature 50 °F 47 °F 69 °F (1971)
Min Temperature 41 °F 33 °F 19 °F (1996)
Degree Days  
Heating Degree Days 20    
Moisture  
Dew Point 25 °F    
Average Humidity 46    
Maximum Humidity 65    
Minimum Humidity 36    
Precipitation  
Precipitation 0.00 in - - ()
Sea Level Pressure  
Sea Level Pressure 30.05 in    
Wind  
Wind Speed 11 mph (SW)    
Max Wind Speed 14 mph    
Max Gust Speed 21 mph    
Visibility 10 miles    
Events      
Averages and records for this station are not official NWS values.
T = Trace of Precipitation, MM = Missing Value Source: NWS Daily Summary

Daily Weather History Graph

Daily Weather History Graph

Search for Another Location

Airport or City:

Trip Planner

Search our weather history database for the weather conditions in past years. The results will help you decide how hot, cold, wet, or windy it might be!

Date:

Astronomy

Nov. 15, 2013 Rise Set
Actual Time 7:23 AM EST 5:09 PM EST
Civil Twilight 6:52 AM EST 5:39 PM EST
Nautical Twilight 6:18 AM EST 6:13 PM EST
Astronomical Twilight 5:45 AM EST 6:47 PM EST
Moon 4:07 PM EST (11/15) 5:16 AM EST (11/15)
Length of Visible Light 10h 46m
Length of Day
9h 46m
Waxing Gibbous, 96% of the Moon is Illuminated
Nov 15
Waxing Gibbous
Nov 17
Full
Nov 25
Last Quarter
Dec 2
New
Dec 9
First Quarter

Hourly Weather History & Observations

Time (EST) Temp. Windchill Dew Point Humidity Pressure Visibility Wind Dir Wind Speed Gust Speed Precip Events Conditions
12:53 AM 42.1 °F 35.2 °F 21.0 °F 43% 30.04 in 10.0 mi SW 12.7 mph - N/A   Clear
1:53 AM 42.1 °F 35.2 °F 21.0 °F 43% 30.04 in 10.0 mi SW 12.7 mph 20.7 mph N/A   Clear
2:53 AM 41.0 °F 34.3 °F 21.0 °F 45% 30.05 in 10.0 mi SW 11.5 mph - N/A   Clear
3:53 AM 41.0 °F 34.7 °F 21.0 °F 45% 30.04 in 10.0 mi SW 10.4 mph - N/A   Clear
4:53 AM 41.0 °F 34.7 °F 21.9 °F 47% 30.04 in 10.0 mi SW 10.4 mph - N/A   Clear
5:53 AM 41.0 °F 34.7 °F 21.9 °F 47% 30.04 in 10.0 mi SW 10.4 mph - N/A   Clear
6:53 AM 42.1 °F 36.6 °F 21.9 °F 45% 30.04 in 10.0 mi SW 9.2 mph - N/A   Clear
7:53 AM 42.1 °F 36.1 °F 23.0 °F 47% 30.06 in 10.0 mi SW 10.4 mph - N/A   Clear
8:53 AM 43.0 °F 37.7 °F 24.1 °F 47% 30.06 in 10.0 mi SW 9.2 mph - N/A   Clear
9:53 AM 46.0 °F 41.0 °F 24.1 °F 42% 30.06 in 10.0 mi WSW 10.4 mph - N/A   Clear
10:53 AM 48.9 °F - 24.1 °F 38% 30.06 in 10.0 mi SW 11.5 mph - N/A   Clear
11:53 AM 50.0 °F - 24.1 °F 36% 30.06 in 10.0 mi SW 13.8 mph 20.7 mph N/A   Clear
12:53 PM 50.0 °F - 25.0 °F 38% 30.04 in 10.0 mi SW 9.2 mph - N/A   Clear
1:53 PM 48.9 °F - 27.0 °F 43% 30.03 in 10.0 mi SSW 11.5 mph - N/A   Clear
2:53 PM 50.0 °F - 27.0 °F 41% 30.03 in 10.0 mi SSW 12.7 mph - N/A   Clear
3:53 PM 48.9 °F - 27.0 °F 43% 30.03 in 10.0 mi SSW 10.4 mph - N/A   Clear
4:53 PM 48.0 °F - 28.0 °F 46% 30.03 in 10.0 mi SSW 12.7 mph - N/A   Clear
5:53 PM 46.0 °F 41.4 °F 28.9 °F 51% 30.04 in 10.0 mi SSW 9.2 mph - N/A   Scattered Clouds
6:53 PM 46.9 °F - 28.0 °F 48% 30.06 in 10.0 mi SW 10.4 mph 20.7 mph N/A   Overcast
7:53 PM 46.9 °F - 28.0 °F 48% 30.06 in 10.0 mi SW 10.4 mph - N/A   Mostly Cloudy
8:53 PM 46.0 °F 41.0 °F 28.0 °F 50% 30.07 in 10.0 mi SW 10.4 mph - N/A   Partly Cloudy
9:53 PM 44.1 °F 41.5 °F 28.0 °F 53% 30.08 in 10.0 mi South 4.6 mph - N/A   Clear
10:53 PM 43.0 °F 38.8 °F 30.0 °F 60% 30.09 in 10.0 mi SSW 6.9 mph - N/A   Mostly Cloudy
11:53 PM 41.0 °F 38.0 °F 30.0 °F 65% 30.09 in 10.0 mi South 4.6 mph - N/A   Partly Cloudy